This is the latest recevied weather packets stored in our database for station/object DG4MJS-10. If no packets are shown the sender has not sent any weather packets the latest 10 day(s).
| Time | Temp. | Humidity | Pressure | Rain* | Wind** | Luminosity | Snow |
|---|---|---|---|---|---|---|---|
| 1788036275 | 19.44° C | 63% | 1016.4 hPa | - | - | - | - |
| 1788035375 | 20° C | 62% | 1016.5 hPa | - | - | - | - |
| 1788034475 | 20° C | 62% | 1016.5 hPa | - | - | - | - |
| 1788033575 | 20° C | 62% | 1016.4 hPa | - | - | - | - |
| 1788032675 | 20.56° C | 60% | 1016.5 hPa | - | - | - | - |
| 1788031775 | 20.56° C | 60% | 1016.4 hPa | - | - | - | - |
| 1788030875 | 20.56° C | 60% | 1016.3 hPa | - | - | - | - |
| 1788029975 | 20.56° C | 60% | 1016.1 hPa | - | - | - | - |
| 1788029075 | 21.11° C | 59% | 1016 hPa | - | - | - | - |
| 1788028174 | 21.11° C | 57% | 1015.8 hPa | - | - | - | - |
| 1788027274 | 21.67° C | 56% | 1015.7 hPa | - | - | - | - |
| 1788026374 | 21.67° C | 57% | 1015.6 hPa | - | - | - | - |
| 1788025474 | 22.22° C | 56% | 1015.6 hPa | - | - | - | - |
| 1788024574 | 22.22° C | 54% | 1015.4 hPa | - | - | - | - |
| 1788023673 | 22.22° C | 53% | 1015.4 hPa | - | - | - | - |
| 1788022773 | 22.78° C | 48% | 1015.4 hPa | - | - | - | - |
| 1788021873 | 22.78° C | 46% | 1015.5 hPa | - | - | - | - |
| 1788020973 | 23.33° C | 44% | 1015.5 hPa | - | - | - | - |
| 1788020075 | 23.33° C | 43% | 1015.6 hPa | - | - | - | - |
| 1788019175 | 23.33° C | 45% | 1015.6 hPa | - | - | - | - |
| 1788018275 | 22.78° C | 46% | 1015.7 hPa | - | - | - | - |
| 1788017375 | 22.78° C | 44% | 1015.6 hPa | - | - | - | - |
| 1788016475 | 22.78° C | 45% | 1015.7 hPa | - | - | - | - |
| 1788015574 | 23.33° C | 46% | 1015.7 hPa | - | - | - | - |
| 1788014674 | 23.33° C | 44% | 1015.7 hPa | - | - | - | - |
* Rain since midnight (hover to see other rain measurements)
** Current wind speed in m/s (hover to see current wind gust speed)